Regional Weather Roundup
Issued by NWS Little Rock, AR

Home | Current Version | Previous Version | Graphics & Text | Print | Product List | Glossary On
Versions: 1 2 3 4 5 6 7 8 9 10 11 12 13 14 15 16 17 18 19 20 21 22 23 24 25 26 27
000
ASUS44 KLZK 171905
RWRLZK

WEATHER ROUNDUP FOR ARKANSAS
NATIONAL WEATHER SERVICE LITTLE ROCK AR
200 PM CDT THU APR 17 2014

NOTE: "FAIR" INDICATES FEW OR NO CLOUDS BELOW 12,000 FEET WITH NO
SIGNIFICANT WEATHER AND/OR OBSTRUCTIONS TO VISIBILITY.

ARZ001-003-010-029-172000-
NORTHWEST ARKANSAS

CITY           SKY/WX    TMP DP  RH WIND       PRES   REMARKS
FAYETTEVILLE   PTSUNNY   66  40  38 N10       30.19F
FORT SMITH     SUNNY     68  36  30 E6        30.19F
HARRISON       MOSUNNY   67  33  28 NE5       30.20F
BENTONVILLE    PTSUNNY   63  36  36 CALM      30.22F
ROGERS         PTSUNNY   63  33  32 E5        30.21F
SILOAM SPGS    PTSUNNY   63  37  39 N7        30.22F
HIGHFILL       PTSUNNY   64  36  35 CALM      30.20F
SPRINGDALE     PTSUNNY   64  37  36 N8        30.22F
$$

ARZ004-005-016-172000-
NORTH CENTRAL ARKANSAS

CITY           SKY/WX    TMP DP  RH WIND       PRES   REMARKS
BATESVILLE     SUNNY     66  39  37 E10       30.21F
FLIPPIN        MOSUNNY   66  36  32 NW7       30.20F
MTN HOME       MOSUNNY   65  31  28 VRB3      30.19F
$$

ARZ040-041-172000-
WEST CENTRAL ARKANSAS

CITY           SKY/WX    TMP DP  RH WIND       PRES   REMARKS
MENA           PTSUNNY   68  41  37 W3        30.18F
MOUNT IDA      MOSUNNY   66  39  37 VRB3      30.16F
$$

ARZ009-017-025-026-028-172000-
NORTHEAST ARKANSAS

CITY           SKY/WX    TMP DP  RH WIND       PRES   REMARKS
CORNING          N/A     64  37  36 W5        30.24F
JONESBORO      SUNNY     65  39  38 VRB5      30.24F
NEWPORT        SUNNY     66  38  35 VRB7      30.24F
WALNUT RIDGE   SUNNY     64  39  39 S7        30.24F
BLYTHEVILLE    SUNNY     65  40  39 S6        30.25F
NW BLYTHEVILLE SUNNY     68  41  37 S7        30.25F
$$

ARZ022-023-033-042-044-172000-
CENTRAL ARKANSAS

CITY           SKY/WX    TMP DP  RH WIND       PRES   REMARKS
LITTLE ROCK    PTSUNNY   68  36  30 SE10      30.21F
N LITTLE ROCK  PTSUNNY   66  39  36 S10       30.21F
JACKSONVILLE   MOSUNNY   67  39  36 SE8       30.22S
SEARCY         MOSUNNY   68  38  33 S9        30.23F
HOT SPRINGS    PTSUNNY   67  35  30 E6        30.20F
RUSSELLVILLE   SUNNY     66  38  35 CALM      30.20F
CLINTON        FAIR      68  37  32 SE5       30.21F
$$

ARZ036-172000-
EAST ARKANSAS

CITY           SKY/WX    TMP DP  RH WIND       PRES   REMARKS
WEST MEMPHIS   MOSUNNY   67  43  41 SE7       30.23F
$$

ARZ050-053-066-070-073-172000-
SOUTHWEST ARKANSAS

CITY           SKY/WX    TMP DP  RH WIND       PRES   REMARKS
ARKADELPHIA    FAIR      69  41  36 S6        30.20F
CAMDEN         CLOUDY    68  37  32 MISG      30.20F
TEXARKANA      CLOUDY    63  43  48 SE5       30.20F
EL DORADO      CLOUDY    65  42  43 E7        30.20F
DE QUEEN       PTSUNNY   66  45  46 VRB5      30.17F
$$

ARZ056-057-069-172000-
SOUTHEAST ARKANSAS

CITY           SKY/WX    TMP DP  RH WIND       PRES   REMARKS
PINE BLUFF     PTSUNNY   68  44  42 E8        30.22F
STUTTGART      PTSUNNY   66  39  37 SE12      30.23F
MONTICELLO     CLOUDY    67  43  41 E7        30.21F

$$





USA.gov is the U.S. government's official web portal to all federal, state and local government web resources and services.